TimeEDT,TemperatureF,Dew PointF,Humidity,Sea Level PressureIn,VisibilityMPH,Wind Direction,Wind SpeedMPH,Gust SpeedMPH,PrecipitationIn,Events,Conditions,WindDirDegrees,DateUTC
12:00 AM,51.4,51.1,99,29.67,-9999.0,NE,3.5,-,0.05,,Unknown,50,2012-10-15 04:00:00
1:00 AM,50.9,50.5,99,29.66,-9999.0,East,2.3,-,N/A,,Unknown,80,2012-10-15 05:00:00
2:00 AM,51,51,99,29.62,,East,3.5,,,,,90,2012-10-15 06:00:00
2:00 AM,51.1,50.7,99,29.62,-9999.0,East,3.5,-,N/A,,Unknown,90,2012-10-15 06:00:00
3:00 AM,52.0,51.6,99,29.59,-9999.0,North,2.3,-,N/A,,Unknown,10,2012-10-15 07:00:00
4:00 AM,60.4,60.1,99,29.55,-9999.0,SW,4.6,-,N/A,,Unknown,220,2012-10-15 08:00:00
5:00 AM,61.7,56.8,84,29.54,-9999.0,SSW,4.6,-,N/A,,Unknown,210,2012-10-15 09:00:00
6:00 AM,61.7,56.3,82,29.52,-9999.0,South,3.5,-,N/A,,Unknown,190,2012-10-15 10:00:00
7:00 AM,61.2,55.2,81,29.50,-9999.0,South,3.5,-,N/A,,Unknown,190,2012-10-15 11:00:00
8:00 AM,63,55,67,29.49,,South,4.6,,,,,190,2012-10-15 12:00:00
8:00 AM,63.0,54.9,75,29.49,-9999.0,South,4.6,-,N/A,,Unknown,190,2012-10-15 12:00:00
9:00 AM,66.4,55.8,69,29.49,-9999.0,SSW,4.6,-,N/A,,Unknown,200,2012-10-15 13:00:00
10:00 AM,68.2,56.3,66,29.49,-9999.0,SSW,5.8,-,N/A,,Unknown,210,2012-10-15 14:00:00
11:00 AM,65.1,55.9,72,29.52,-9999.0,WSW,18.4,-,N/A,,Unknown,250,2012-10-15 15:00:00
12:00 PM,61.9,53.1,73,29.55,-9999.0,WSW,15.0,-,N/A,,Unknown,240,2012-10-15 16:00:00
1:00 PM,61.9,50.4,66,29.56,-9999.0,WSW,16.1,-,N/A,,Unknown,240,2012-10-15 17:00:00
2:00 PM,63,48,48,29.56,,WSW,12.7,,,,,240,2012-10-15 18:00:00
2:00 PM,62.8,48.2,59,29.56,-9999.0,WSW,12.7,-,N/A,,Unknown,240,2012-10-15 18:00:00
3:00 PM,62.1,48.4,61,29.57,-9999.0,WSW,15.0,-,N/A,,Unknown,240,2012-10-15 19:00:00
4:00 PM,60.1,48.7,66,29.57,-9999.0,SW,13.8,-,N/A,,Unknown,230,2012-10-15 20:00:00
5:00 PM,59.5,48.9,68,29.57,-9999.0,WSW,13.8,-,N/A,,Unknown,250,2012-10-15 21:00:00
6:00 PM,56.5,49.1,76,29.57,-9999.0,SW,11.5,-,N/A,,Unknown,230,2012-10-15 22:00:00
7:00 PM,54.9,47.8,77,29.58,-9999.0,SW,10.4,-,N/A,,Unknown,230,2012-10-15 23:00:00
8:00 PM,55,47,66,29.59,,SW,12.7,,,,,230,2012-10-16 00:00:00
8:00 PM,55.0,46.8,74,29.59,-9999.0,SW,12.7,-,N/A,,Unknown,230,2012-10-16 00:00:00
9:00 PM,53.8,45.1,73,29.59,-9999.0,SW,9.2,-,N/A,,Unknown,220,2012-10-16 01:00:00
10:00 PM,54.1,43.7,68,29.58,-9999.0,SW,12.7,-,N/A,,Unknown,230,2012-10-16 02:00:00
11:00 PM,53.1,42.8,68,29.58,-9999.0,WSW,10.4,-,N/A,,Unknown,250,2012-10-16 03:00:00